EHI
0 0 0 0 0 0 0 0 0 0 0 0 0 3 5 3 0 0 0 1 8 14 8 8 23 42 61 71 68 56 45 42 44 44 41 35 23 11 3 1 0 0 0 0 0 0 0 0 0
0 0 0 0 0 0 0 0 0 0 0 0 1 3 5 3 1 0 0 4 15 20 11 10 24 43 59 68 65 51 36 30 30 29 26 20 12 5 1 0 0 0 0 0 0 0 0 0 0
0 0 0 0 0 0 0 1 1 0 0 1 1 3 5 3 1 0 3 13 29 29 16 14 27 42 53 61 59 47 31 21 16 13 10 6 2 0 0 0 0 0 0 0 0 0 0 0 0
0 0 0 0 0 0 1 2 2 1 1 2 3 3 4 2 1 2 8 25 40 35 19 17 27 37 47 55 55 48 36 23 14 8 4 2 0 0 0 0 0 0 0 0 0 0 0 0 0
0 0 0 0 0 0 1 2 3 3 3 4 4 4 4 2 1 3 10 24 36 32 19 19 27 34 42 50 52 48 40 28 18 11 6 3 1 1 0 0 0 0 0 0 0 0 0 0 0
0 0 0 0 0 0 1 3 6 7 7 5 5 5 5 3 1 2 5 11 21 24 19 20 27 32 37 43 45 43 37 29 21 13 8 5 3 2 1 0 0 0 0 1 1 0 0 0 0
0 0 0 0 0 0 1 4 6 7 6 5 4 4 5 4 2 1 1 3 9 14 15 16 21 25 28 32 34 32 29 24 18 12 9 7 4 3 1 0 0 0 0 1 1 1 1 0 0
0 0 0 0 0 0 2 3 3 4 5 5 4 4 7 9 7 4 3 2 3 5 7 9 12 15 17 19 20 22 20 17 14 11 9 6 4 2 1 1 0 0 0 1 1 1 1 1 0
0 0 0 0 0 0 1 2 2 5 8 11 14 18 22 24 18 11 6 2 1 1 2 3 6 7 9 10 12 14 15 14 13 10 8 5 2 1 0 0 0 0 0 0 0 1 1 1 1
0 0 0 0 0 0 0 2 4 9 16 23 32 40 46 41 30 20 11 5 2 2 2 1 2 3 4 5 7 9 10 11 10 9 8 6 3 2 1 1 0 0 0 0 1 1 1 2 2
0 0 0 0 0 0 1 6 13 19 25 34 42 51 53 48 39 30 20 12 9 9 7 4 3 2 2 2 3 4 5 6 6 7 10 10 7 5 4 2 1 0 0 0 1 2 3 4 5
0 0 1 2 3 6 11 21 32 36 36 41 48 52 51 49 46 40 32 25 21 21 16 10 6 4 3 2 2 2 3 4 4 6 10 11 9 6 4 3 2 1 0 0 1 2 3 4 5
0 1 2 4 8 16 28 42 47 44 42 47 55 56 54 51 48 45 41 35 32 29 20 12 7 5 4 3 3 3 3 4 4 5 8 9 6 3 2 2 2 2 1 1 1 1 2 3 4
1 1 3 5 8 17 36 49 47 39 39 48 53 53 50 46 42 39 37 35 32 25 15 8 5 3 3 3 3 4 4 3 3 4 6 5 3 2 1 2 2 2 2 1 1 0 0 1 1
0 1 1 2 3 9 23 36 34 30 35 44 45 43 39 34 29 24 21 23 20 12 6 4 3 2 2 3 3 3 3 2 3 3 3 3 2 1 2 3 2 1 1 1 0 0 0 0 0
0 0 0 0 0 2 8 17 20 23 30 36 36 34 31 25 18 11 9 9 7 3 2 2 2 1 2 3 3 2 1 2 2 2 2 2 1 1 2 3 2 0 0 0 0 0 0 0 0
0 0 0 0 0 1 3 8 13 17 20 22 22 23 22 17 11 6 4 3 1 1 1 2 1 1 1 1 1 1 0 1 1 1 1 1 0 0 1 1 1 0 0 0 0 0 0 0 0
0 0 0 0 1 2 4 8 11 11 11 11 10 9 10 9 7 4 2 1 0 0 1 1 0 0 0 0 0 0 0 0 0 0 0 0 0 0 0 0 0 0 0 0 0 0 0 0 0
0 0 0 0 1 2 4 8 10 9 6 5 4 2 2 3 2 1 0 0 0 0 0 0 0 0 0 0 0 0 0 0 0 0 0 0 0 0 0 0 0 0 0 0 0 0 0 0 0
0 0 0 0 0 1 3 5 7 6 4 2 1 1 0 0 0 0 0 0 0 0 0 0 0 0 0 0 0 0 0 0 0 0 0 0 0 0 0 0 0 0 0 0 0 0 0 0 0
0 0 0 0 0 1 1 1 2 2 1 1 1 1 0 0 0 0 0 0 0 0 0 0 0 0 0 0 0 0 0 0 0 0 0 0 0 0 0 0 0 0 0 0 0 0 0 0 0
0 0 0 0 0 0 0 0 0 0 0 0 1 1 0 0 0 0 0 0 0 0 0 0 0 0 0 0 0 0 0 0 0 0 0 0 0 0 0 0 0 0 0 0 0 0 0 0 0
0 0 0 0 0 0 0 0 0 0 0 0 0 0 0 0 0 0 0 0 0 0 0 0 0 0 0 0 0 0 0 0 0 0 0 0 0 0 0 0 0 0 0 0 0 0 0 0 0
0 0 0 0 0 0 0 0 0 0 0 0 0 0 0 0 0 0 0 0 0 0 0 0 0 0 0 0 0 0 0 0 0 0 0 0 0 0 0 0 0 0 0 0 0 0 0 0 0
0 0 0 0 0 0 0 0 0 0 0 0 0 0 0 0 0 0 0 0 0 0 0 0 0 0 0 0 0 0 0 0 0 0 0 0 0 0 0 0 0 0 0 0 0 0 0 0 0
0 0 0 0 0 0 0 0 0 0 0 0 0 0 0 0 0 0 0 0 0 0 0 0 0 0 0 0 0 0 0 0 0 0 0 0 0 0 0 0 0 0 0 0 0 0 0 0 0
0 0 0 0 0 0 0 0 0 0 0 0 0 0 0 0 0 0 0 0 0 0 0 0 0 0 0 0 0 0 0 0 0 0 0 0 0 0 0 0 0 0 0 0 0 0 0 0 0
0 0 0 0 0 0 0 0 0 0 0 0 0 0 0 0 0 0 0 0 0 0 0 0 0 0 0 0 0 0 0 0 0 0 0 0 0 0 0 0 0 0 0 0 0 0 0 0 0
0 0 0 0 0 0 0 0 0 0 0 0 0 0 0 0 0 0 0 0 0 0 0 0 0 0 0 0 0 0 0 0 0 0 0 0 0 0 0 0 0 0 0 0 0 0 0 0 0
0 0 0 0 0 0 0 0 0 0 0 0 0 0 0 0 0 0 0 0 0 0 0 0 0 0 0 0 0 0 0 0 0 0 0 0 0 0 0 0 0 0 0 0 0 0 0 0 0
Wind_Speed
9 5 2 2 3 2 4 5 4 4 2 2 4 7 8 5 2 3 2 9 13 12 9 12 14 15 16 16 16 16 16 15 15 15 14 14 14 14 13 12 12 11 10 9 9 8 8 8 8
5 3 2 3 2 2 5 4 3 3 1 2 4 6 7 5 4 6 5 8 13 11 8 9 15 15 15 15 15 15 15 14 14 14 13 13 13 12 12 11 11 10 10 9 9 8 8 8 8
5 2 3 3 1 2 5 4 4 4 1 2 4 5 6 4 5 5 6 13 12 10 7 10 16 15 14 14 14 14 14 13 13 12 12 12 11 11 10 10 10 9 9 9 8 8 8 8 8
3 3 3 3 3 5 6 8 7 3 3 5 4 6 5 5 2 7 13 15 13 9 7 9 15 14 14 13 13 13 12 12 11 11 11 10 10 10 9 9 9 8 8 8 8 8 8 8 8
3 3 3 2 5 6 6 8 4 2 3 5 5 5 5 6 9 13 14 15 13 9 6 8 14 13 13 12 12 12 12 11 11 10 10 9 9 9 9 9 8 8 8 9 9 8 8 8 8
4 4 3 2 6 6 6 6 4 6 5 4 5 5 3 4 8 11 12 12 11 9 7 7 13 13 12 12 11 11 11 11 10 10 10 9 9 9 9 8 8 8 8 8 9 9 9 9 8
4 3 1 3 5 5 6 7 6 5 4 4 3 5 2 3 5 8 9 10 9 7 6 5 6 8 11 11 10 10 10 9 9 9 9 9 9 9 9 9 9 9 9 9 9 10 10 9 9
4 4 1 3 3 4 5 5 4 5 3 3 4 6 4 5 9 9 9 8 7 6 5 4 4 4 4 4 8 9 8 8 8 8 8 9 9 9 9 8 9 10 10 10 11 11 11 11 10
4 4 2 4 3 4 3 5 5 3 4 5 5 3 6 14 13 11 9 7 6 6 4 3 4 3 3 2 4 6 7 7 7 6 8 7 3 3 4 7 10 11 11 12 12 12 12 12 11
4 3 7 6 4 3 2 2 3 4 6 6 7 9 13 13 11 10 9 8 8 6 5 3 3 2 2 2 1 1 1 1 2 1 2 1 1 2 4 5 10 11 11 12 13 13 12 10 5
5 7 6 5 5 3 1 1 3 4 6 5 5 9 10 10 8 7 6 6 5 5 5 4 3 2 2 0 0 0 0 0 1 2 2 2 2 2 3 2 4 5 7 5 7 7 5 5 5
4 6 5 4 2 2 2 3 5 7 5 6 7 7 8 8 6 6 6 6 6 6 4 3 3 2 2 1 0 0 0 1 1 2 2 2 1 1 2 2 2 2 2 3 3 3 5 6 7
4 5 2 2 3 4 8 7 7 6 7 9 11 10 9 8 6 5 5 5 6 6 5 4 2 2 2 1 0 1 0 1 1 1 1 1 1 1 1 1 2 2 2 3 3 3 4 5 6
3 1 2 3 4 4 9 6 6 5 7 10 10 9 8 7 6 6 5 6 6 5 5 4 3 3 3 2 1 1 1 1 1 1 1 1 0 1 1 1 1 2 2 2 3 4 4 4 4
1 1 3 4 3 3 7 7 4 3 6 9 9 8 8 6 6 6 5 5 5 5 4 4 4 3 3 3 2 1 1 1 1 1 2 1 1 0 0 1 1 1 2 2 2 3 3 4 4
2 3 2 3 2 2 6 4 2 2 5 7 7 7 7 5 5 4 5 4 4 4 4 3 4 4 4 3 3 2 2 2 1 1 1 1 1 0 0 0 1 2 1 1 2 2 2 3 4
3 1 1 2 2 2 4 5 4 3 5 5 5 6 6 5 4 3 4 4 4 5 5 4 4 4 3 3 3 2 2 2 1 1 1 1 1 1 0 1 1 2 1 1 2 1 1 3 4
3 2 1 1 1 3 3 3 5 5 6 6 5 5 5 6 5 4 4 4 3 3 4 4 3 3 3 2 2 2 2 2 2 1 1 2 2 1 1 1 2 2 1 1 2 2 2 3 4
3 2 2 1 1 3 3 4 4 4 4 4 5 5 5 5 4 4 5 4 4 3 4 4 3 3 2 1 1 1 0 1 1 2 2 2 2 3 2 2 2 2 2 2 2 2 2 2 2
2 2 2 1 2 3 2 1 1 2 3 4 5 5 6 5 4 5 5 5 5 5 5 4 3 2 2 1 1 1 0 1 1 2 3 3 3 3 3 2 3 2 2 3 2 1 1 2 1
2 3 3 3 3 4 1 1 1 1 1 2 4 5 5 7 7 7 7 7 6 6 6 5 4 3 2 2 1 1 1 2 2 2 3 3 4 4 3 3 3 3 2 3 3 2 2 2 2
2 2 4 5 4 2 3 2 3 1 2 3 5 5 7 7 7 7 7 7 7 7 5 4 4 4 3 3 2 2 1 2 3 2 3 4 4 4 4 4 3 3 2 3 3 2 2 2 2
2 5 6 5 4 3 4 1 6 1 3 5 6 6 7 7 8 8 8 7 6 5 4 4 4 3 3 2 2 2 2 3 2 2 4 4 4 4 4 4 3 2 2 3 3 2 3 3 3
7 7 6 6 5 3 2 1 6 3 5 4 4 6 7 6 6 6 5 5 4 4 4 4 4 3 2 2 2 3 4 4 4 4 4 4 3 4 5 4 3 3 3 3 3 3 4 4 4
4 6 5 5 4 3 1 1 9 7 6 6 6 6 5 5 5 5 5 5 4 4 4 3 3 3 2 2 3 3 4 4 5 5 5 5 4 3 5 4 4 3 4 4 3 3 4 4 4
3 7 6 3 3 3 1 4 8 6 5 5 6 5 4 4 4 5 5 5 5 5 4 3 3 3 3 3 3 3 4 3 4 5 5 5 4 5 6 5 5 5 5 5 4 3 4 4 4
6 3 5 7 2 1 4 6 9 3 4 3 4 4 5 4 4 4 4 4 4 4 3 3 3 3 3 4 4 4 4 4 5 6 5 5 5 6 6 6 6 6 5 5 4 4 5 4 5
5 8 6 5 4 1 4 4 5 6 6 5 4 5 5 3 3 4 3 3 2 2 2 2 3 3 4 4 4 4 5 5 5 5 6 6 6 6 6 7 6 6 6 6 5 5 6 6 6
3 4 6 5 5 5 3 8 8 8 8 7 7 6 6 6 5 4 3 2 2 1 1 2 3 3 4 5 4 5 5 5 5 5 6 6 6 6 7 7 7 7 7 7 6 7 7 7 7
1 4 7 5 3 4 4 10 6 7 7 7 7 6 5 5 4 3 2 2 1 2 3 4 4 4 5 4 4 5 5 5 5 6 7 6 7 7 7 7 7 8 8 7 7 8 8 8 8
Wind_Direction
135 123 95 68 50 25 273 261 250 297 331 14 64 81 89 79 94 129 107 128 131 139 146 148 145 142 138 134 131 130 130 131 133 134 137 140 144 147 150 153 155 156 155 151 147 142 138 136 133
132 124 65 62 63 345 290 265 285 304 178 128 71 78 75 69 76 103 120 134 136 137 137 145 147 144 142 138 136 135 136 138 139 141 143 146 150 152 155 158 160 161 160 157 155 151 146 145 143
141 108 87 71 76 245 283 291 303 319 1 41 58 55 69 81 118 126 138 136 130 131 132 151 149 148 146 144 142 141 142 144 146 148 151 154 157 161 163 165 166 167 166 165 165 161 157 155 155
125 62 63 65 273 251 254 279 292 296 18 45 77 60 57 30 108 131 134 136 132 128 133 153 150 151 151 151 149 148 148 151 155 157 161 164 167 171 174 175 177 180 179 176 175 174 170 168 168
74 82 56 355 270 264 268 290 308 50 55 44 68 77 43 22 94 123 134 139 137 131 132 148 150 152 155 157 157 157 158 161 165 169 172 177 179 183 187 190 193 197 195 191 188 187 184 184 183
67 70 70 308 287 286 308 339 27 59 62 52 66 79 52 86 112 128 134 135 136 133 129 142 152 155 159 163 166 168 169 173 177 182 185 189 192 196 200 203 209 212 212 209 204 200 198 198 198
110 105 163 263 286 307 338 356 25 40 62 34 70 91 89 115 117 120 123 127 127 123 120 124 143 156 163 168 173 176 178 183 188 193 196 200 203 208 212 217 221 222 223 222 218 214 212 210 210
134 105 333 276 274 295 328 10 18 26 37 41 67 122 159 152 122 112 112 116 119 110 108 111 115 123 138 162 179 183 186 192 198 205 210 213 217 221 225 228 232 235 234 233 229 227 225 221 218
114 76 256 243 239 273 334 18 0 18 53 43 40 84 133 128 123 118 118 121 132 135 111 106 110 113 118 141 192 192 197 202 207 214 223 227 237 245 246 246 241 244 244 243 241 238 235 231 229
114 159 231 228 219 240 328 15 360 38 44 43 49 70 112 127 132 134 139 148 154 156 153 129 124 125 128 172 175 183 214 218 218 221 235 229 226 246 253 265 259 258 257 255 252 247 242 239 231
170 204 240 256 243 243 254 49 34 81 49 40 84 114 124 130 130 133 138 146 149 148 160 148 145 146 155 167 120 166 178 254 239 228 228 227 224 240 255 264 277 282 279 274 270 261 241 229 223
200 245 242 273 276 228 166 111 69 58 71 79 98 106 112 118 118 127 137 138 127 130 138 131 140 143 152 154 91 167 165 262 266 256 237 224 236 245 256 254 260 270 280 282 277 268 255 239 232
225 268 288 303 21 87 91 88 95 76 81 87 90 86 90 93 89 82 93 106 114 119 112 103 114 123 123 108 52 69 4 310 302 308 289 240 238 264 271 276 282 277 279 281 279 272 270 258 247
233 204 354 15 63 78 95 80 83 94 98 93 91 88 87 90 92 92 92 100 108 112 109 107 101 94 94 93 81 74 58 7 12 360 359 357 251 241 264 278 278 283 287 283 282 280 275 269 261
291 62 4 18 66 125 98 60 64 113 111 100 99 99 95 89 91 96 101 104 107 107 104 107 110 95 98 96 85 87 72 54 34 350 8 23 37 334 264 294 308 305 303 302 295 286 276 272 265
30 47 4 331 49 112 103 128 143 136 121 112 116 116 110 99 97 103 108 108 112 114 109 105 107 99 96 94 85 79 67 53 25 6 11 13 15 61 91 309 297 305 317 310 299 292 289 274 268
23 31 270 315 11 102 115 162 176 156 139 138 138 133 128 124 119 125 133 137 136 135 133 128 125 123 112 102 91 84 72 47 18 8 4 353 4 24 62 285 295 312 318 313 305 301 277 280 278
246 242 264 272 326 91 120 163 171 176 170 165 157 154 152 158 170 171 162 159 151 147 149 149 146 137 120 99 80 61 49 25 17 6 350 349 354 3 11 322 326 329 318 312 308 296 281 267 276
194 188 232 236 88 90 141 161 185 180 178 176 172 177 180 183 187 181 180 178 169 177 180 176 169 170 144 116 112 99 10 336 342 341 346 351 352 353 346 328 316 309 286 276 284 288 299 293 292
196 187 183 79 59 86 112 186 194 192 217 203 194 193 197 191 186 194 195 197 198 199 202 202 198 188 174 142 136 141 145 288 289 315 332 344 346 339 333 311 296 287 277 283 281 257 291 292 306
234 198 181 155 95 58 60 329 232 259 270 217 211 207 210 202 200 203 204 208 209 212 209 206 204 199 193 164 113 73 37 357 338 328 325 329 332 328 322 307 288 277 249 257 260 233 228 266 289
257 224 145 120 103 17 31 312 291 249 264 227 219 213 217 218 210 209 210 213 216 219 209 203 198 199 200 177 172 177 192 252 261 275 290 304 311 314 312 308 298 279 260 258 259 233 218 224 266
138 77 84 87 97 50 26 19 295 334 254 239 227 224 223 221 217 216 215 217 219 212 200 196 192 202 204 194 190 194 227 242 271 287 293 297 303 303 301 301 300 286 268 260 257 251 228 216 230
120 76 60 54 61 18 339 23 289 261 235 246 234 228 227 224 221 220 216 205 209 195 185 180 182 208 213 214 214 215 240 259 277 284 285 288 292 294 292 289 287 281 273 268 261 252 243 231 232
85 85 35 6 12 275 278 257 258 258 237 229 241 243 239 232 220 214 203 194 192 185 183 174 180 219 235 238 245 241 244 248 253 263 266 273 279 280 283 285 276 273 268 268 262 256 252 239 235
161 131 149 200 232 278 309 255 258 257 258 246 239 242 245 233 216 208 200 191 188 185 181 179 195 226 244 249 259 261 252 244 251 255 254 259 259 266 274 276 270 266 265 268 260 256 257 247 244
138 144 145 122 114 359 293 289 299 263 263 245 232 225 226 219 198 190 185 181 181 178 181 186 198 232 253 256 264 270 266 257 259 264 261 261 262 268 271 271 271 270 267 263 258 254 259 258 251
127 137 103 110 132 272 301 281 255 256 246 235 219 214 216 193 178 175 172 169 170 178 186 196 215 238 256 264 263 267 268 266 265 270 272 269 270 270 276 277 274 272 269 263 254 254 257 257 256
109 95 103 109 145 152 242 269 228 223 224 218 220 215 204 193 188 183 178 170 169 182 218 245 254 259 268 269 269 274 275 275 275 271 270 271 274 276 275 275 276 275 273 267 256 254 253 251 256
180 159 147 147 196 171 180 265 257 231 234 217 219 213 199 190 183 177 176 173 204 243 258 262 265 264 265 268 272 273 276 282 283 279 277 276 276 276 274 274 274 275 273 266 260 262 261 251 253